Find IRNSS-R1D

NORAD ID: 40547 Int'l Des: 2015-018 Owner: ISRO Country: IN operational
HEOCIRCULAR

Live Position

Loading 3D Globe...

About IRNSS-R1D

Description loading...

Upcoming Passes

Passes for default location (London). Set your location on the main map for personalized predictions.

Altitude History

Loading altitude history...

Two-Line Element Set

1 40547U 15018A 26111.61403796 -.00000001 00000-0 00000+0 0 9993
2 40547 19.6876 240.0066 0007601 353.6719 89.5390 0.97957372 40350
Epoch: Apr 21, 2026 • Age: 12 hours

Current Status

Altitude 36453.8 km
Velocity 3.05 km/s
Sub-Earth Point -19.50°S, 112.34°W
Launch Date Mar 28, 2015
Age 11 years
Type other

Technical Details

Classification Payload
Mass 1425.00 kg
Dry Mass 603.00 kg
Total Mass 1425.00 kg
Length 1.60 m
Diameter 1.50 m
Span 10.00 m
Shape Box + 2 Pan
Manufacturer ISAC
Bus Type I1K
Phase Status In Orbit
Owner/State ISRO/IN

Most Searched